Wind_Speed
1 2 2 2 4 5 2 3 2 2 3 10 17 18 11 9 4 7 5 4 9 12 7 8 9 11 10 8 9 9 8 8 7 7 8 8 9 9 8 8 7 7 8 9 10 9 9 9 8
1 2 3 2 5 4 2 1 4 2 6 18 12 9 10 4 12 8 5 3 10 7 7 7 9 10 10 8 8 8 8 8 8 8 8 9 10 10 10 10 11 10 10 10 11 12 12 11 10
1 3 1 4 3 3 3 2 4 4 10 5 6 13 5 4 6 7 3 3 3 4 5 6 7 9 9 9 8 8 7 7 7 8 8 9 9 10 12 12 13 13 13 13 13 13 13 14 13
2 2 5 5 5 2 5 3 4 5 9 7 15 9 7 4 3 6 3 3 4 6 8 8 7 8 8 8 8 8 9 10 11 11 9 10 11 11 12 13 13 14 14 15 14 15 15 14 15
5 2 5 4 3 1 1 2 3 2 5 7 4 4 7 10 10 6 3 1 5 8 9 10 10 10 10 9 9 9 10 10 11 11 13 13 13 13 12 12 12 13 15 17 17 17 16 16 17
3 3 5 3 3 1 2 8 10 5 5 7 11 7 4 10 6 4 2 3 7 8 10 10 11 11 11 10 10 10 10 11 12 13 14 14 15 18 18 19 17 16 15 16 19 19 19 17 17
5 4 4 5 6 1 1 3 6 4 3 6 9 5 9 10 5 4 3 6 9 10 9 10 10 11 11 12 12 12 12 13 14 14 14 15 16 16 16 18 21 24 25 21 20 21 20 21 19
2 4 4 2 5 3 1 3 7 4 3 7 3 6 7 14 9 5 4 7 8 9 8 9 9 10 11 12 13 13 13 14 13 14 14 14 14 15 15 15 16 18 21 24 25 23 22 22 21
1 4 2 2 5 4 2 3 3 5 8 8 5 6 10 17 11 5 3 5 7 7 8 9 9 10 11 12 13 13 13 15 15 14 15 15 15 15 15 15 15 16 16 18 23 26 27 24 23
5 4 4 2 3 4 5 5 4 4 9 8 15 15 14 14 12 7 3 4 5 8 10 10 10 12 13 14 14 15 15 16 17 16 16 16 16 17 17 15 15 17 18 17 18 19 27 29 25
3 4 5 1 6 7 6 6 3 15 4 3 14 15 16 16 13 7 2 4 8 10 9 10 12 14 15 15 17 17 18 18 19 19 19 19 18 18 18 18 17 17 17 17 17 18 17 24 29
6 6 4 4 3 5 4 5 6 5 3 5 11 14 18 17 13 7 3 2 5 8 11 12 13 13 14 16 17 18 19 20 21 21 21 21 20 20 19 19 19 19 20 20 19 17 16 16 19
5 4 6 7 7 6 5 5 7 7 7 6 12 17 19 18 13 8 2 2 6 9 10 10 11 12 13 15 16 18 20 20 20 20 19 20 20 21 21 20 20 20 20 20 21 19 18 18 16
5 9 10 5 5 4 6 6 2 4 11 12 20 18 19 17 13 9 5 4 6 8 9 9 10 12 14 17 19 21 21 21 20 19 19 19 20 21 21 20 21 23 22 20 20 21 21 20 20
12 5 2 2 3 3 8 2 4 8 12 17 20 21 19 16 12 7 4 6 8 8 8 7 9 12 16 19 20 20 20 21 22 22 23 23 24 25 26 26 24 24 24 24 23 20 21 22 20
2 4 2 2 1 4 3 5 7 8 12 17 22 22 19 15 11 6 5 6 6 5 6 7 10 13 17 19 19 18 19 20 21 21 21 20 20 22 24 26 27 25 25 25 24 25 24 23 23
4 2 3 3 2 2 3 5 8 9 9 17 23 22 18 15 10 7 6 5 3 5 6 8 10 14 17 18 18 18 19 19 20 21 22 23 23 24 25 27 26 26 25 25 24 25 24 24 25
5 3 2 3 2 2 4 7 5 9 10 16 23 21 19 14 11 7 5 3 5 7 9 10 10 14 17 18 20 21 21 21 23 25 26 26 25 26 26 27 26 26 26 25 24 25 23 24 24
3 2 1 2 1 1 5 4 8 10 10 13 24 22 19 15 11 8 6 6 9 10 10 10 13 18 20 24 27 29 29 30 30 30 30 31 31 30 29 28 28 26 25 26 25 25 26 26 22
1 2 2 4 0 2 4 9 5 9 6 17 27 22 19 16 14 11 8 8 10 10 9 11 15 19 22 25 26 29 31 34 35 35 33 30 29 31 29 26 26 26 26 26 24 23 25 24 17
2 2 2 3 5 4 4 6 3 4 5 10 20 19 18 17 15 13 10 11 10 9 11 14 18 22 24 26 28 31 34 37 40 38 36 35 32 29 29 28 26 26 26 26 24 23 22 25 21
2 4 2 2 3 3 3 5 4 5 6 9 18 20 19 17 14 13 13 12 10 10 13 16 20 24 26 27 30 33 35 37 37 37 36 35 33 32 30 29 28 26 25 25 23 23 23 22 22
2 2 2 2 1 2 1 2 6 3 6 10 20 22 19 17 15 13 13 11 11 12 16 18 22 25 27 28 31 34 35 34 37 37 37 36 36 34 31 29 28 26 23 24 23 23 22 21 21
2 3 4 3 2 1 3 4 5 5 6 4 12 25 20 16 16 16 13 12 13 16 17 20 24 26 28 31 34 34 33 35 37 37 38 37 36 35 33 29 26 25 22 24 24 25 24 22 21
2 4 3 4 3 5 0 1 8 4 3 5 14 24 19 16 17 18 16 15 16 15 17 23 26 29 30 33 34 33 33 34 34 36 36 37 37 35 33 29 26 25 26 26 25 24 23 22 20
2 4 4 5 3 4 4 6 5 2 2 1 8 14 16 18 19 18 17 16 14 16 21 24 28 29 33 35 34 33 33 33 34 34 34 34 33 33 31 29 28 29 28 27 25 23 22 21 20
3 2 3 5 2 3 4 7 4 4 3 4 7 12 16 19 20 19 17 14 13 17 20 24 26 31 33 31 31 33 33 33 33 33 32 32 31 31 30 29 29 28 26 25 24 23 22 20 20
2 4 3 2 2 5 5 6 6 6 8 6 8 14 15 16 17 16 13 11 14 18 21 22 28 31 30 31 32 33 33 32 32 31 31 30 30 30 31 29 27 26 25 25 24 24 23 22 21
2 2 2 3 4 4 2 6 5 6 8 10 15 16 14 16 16 12 9 12 16 17 19 25 30 30 30 31 32 32 32 32 30 30 30 29 30 31 31 29 27 29 28 26 25 24 23 21 21
2 5 6 4 5 3 3 7 2 3 6 11 12 11 10 11 10 9 11 12 13 18 24 29 28 28 29 31 32 32 33 32 31 31 30 30 32 32 31 30 29 27 26 26 26 26 24 25 23
Wind_Direction
49 345 349 51 59 67 51 37 344 47 39 68 77 94 101 68 31 134 111 4 329 322 329 348 358 355 349 347 352 352 351 341 335 325 316 306 302 296 290 288 290 291 285 278 274 276 279 285 279
73 358 34 70 81 66 304 11 98 79 110 115 86 87 54 72 95 103 200 331 327 356 3 353 341 330 331 337 334 344 348 341 333 326 316 304 297 291 287 282 278 276 275 275 273 270 271 275 276
50 27 32 86 88 122 138 202 167 97 81 123 113 74 80 94 112 131 129 328 323 14 17 5 351 350 346 334 324 318 328 338 328 306 306 307 304 296 286 280 276 271 269 268 268 271 268 266 269
349 50 60 77 95 15 147 199 163 109 76 69 107 70 83 102 141 142 146 309 354 10 6 359 349 350 354 354 349 332 317 305 302 303 299 293 295 293 299 290 285 278 271 264 262 265 268 268 266
30 68 59 79 45 60 27 77 159 103 98 70 126 100 93 102 130 143 192 24 10 13 7 3 6 3 360 358 354 351 345 333 324 312 297 289 286 283 289 285 284 284 279 274 268 261 261 264 268
57 65 68 142 138 235 38 57 74 78 84 105 95 100 118 147 190 149 113 37 30 28 28 19 19 16 11 11 2 351 341 334 332 329 325 319 304 293 285 282 282 279 279 277 275 271 266 258 262
96 77 149 126 159 63 192 61 87 93 64 44 134 90 141 157 148 141 70 38 33 36 34 31 24 23 14 11 8 359 353 348 345 336 332 326 323 321 313 300 285 277 274 276 273 272 271 267 262
81 90 95 73 181 188 289 99 111 115 92 82 113 146 169 162 160 155 83 34 26 36 38 35 26 17 15 11 10 3 355 353 352 346 343 336 329 322 317 307 304 298 284 274 269 270 266 266 262
102 64 108 156 163 169 152 112 86 74 96 62 75 126 133 149 167 163 99 30 24 31 31 27 21 14 9 5 1 357 353 350 347 347 343 338 336 333 328 321 309 301 298 292 273 264 265 262 259
72 93 170 228 178 148 110 114 110 98 92 74 98 113 127 153 169 172 144 8 9 14 19 15 11 8 4 1 355 350 345 342 338 337 332 330 332 331 330 326 318 309 301 296 290 282 264 261 261
76 147 164 114 100 131 119 86 106 122 60 142 158 143 149 165 182 186 183 343 9 11 360 5 7 5 357 355 354 349 347 342 337 333 331 329 325 321 320 318 316 313 311 310 307 292 287 270 264
88 62 121 131 90 107 110 108 81 80 111 117 163 152 161 167 167 176 196 37 356 344 359 3 3 1 359 1 357 355 351 349 342 339 332 329 326 324 323 320 315 311 309 310 309 307 304 287 278
86 132 92 109 96 94 120 110 127 73 125 129 153 163 164 158 158 158 197 323 332 339 357 358 0 360 6 2 360 356 352 348 346 338 335 332 331 329 327 325 323 319 313 311 306 302 298 295 290
119 119 126 123 121 119 131 151 141 121 148 143 155 154 156 160 166 174 208 280 320 343 351 0 1 8 3 354 346 339 333 330 328 328 330 330 330 329 329 327 326 322 319 318 313 307 300 296 294
127 90 109 164 171 165 135 149 175 151 150 140 152 156 156 161 168 191 235 288 319 340 353 351 359 355 348 346 341 339 340 337 334 330 316 309 312 313 315 315 320 321 320 318 312 308 302 297 291
78 70 129 232 148 184 152 254 199 175 164 158 155 158 162 164 181 197 243 291 315 338 338 348 345 347 347 347 346 344 341 338 334 332 331 333 332 325 323 318 310 310 312 313 313 313 306 305 304
15 200 210 297 204 169 178 260 195 194 198 177 166 165 169 167 183 211 259 279 313 331 331 328 336 340 341 342 343 339 335 332 328 325 323 321 320 318 318 315 315 316 311 311 311 309 312 312 304
188 195 196 216 211 205 219 255 196 205 202 182 173 167 169 180 196 227 261 291 317 312 310 313 319 331 338 343 339 332 330 331 332 332 329 324 320 317 316 312 311 313 311 309 310 310 309 312 312
127 135 244 257 154 281 240 250 212 206 195 176 179 177 177 187 205 230 260 283 294 290 297 302 317 336 338 342 341 338 337 334 329 326 321 317 317 315 314 311 310 310 309 309 311 311 311 311 315
135 145 262 292 0 336 285 269 209 198 198 195 183 184 191 198 209 231 247 273 283 282 292 314 326 335 338 338 337 333 330 327 324 323 322 320 317 317 319 315 310 307 307 305 306 307 311 310 315
31 163 176 237 326 259 304 285 180 227 175 189 195 200 206 215 227 232 243 260 284 299 313 318 322 329 331 331 329 324 322 322 324 324 324 323 322 317 314 314 310 305 305 303 303 301 304 308 306
225 155 142 248 44 262 53 280 261 210 212 198 198 205 213 220 224 238 251 257 290 295 303 308 314 322 325 327 325 326 327 325 325 324 323 320 319 317 314 313 311 306 302 301 300 298 296 295 297
229 159 206 168 177 15 252 90 266 128 238 228 214 215 220 224 224 234 240 261 276 286 292 303 315 318 323 325 325 327 325 323 322 322 322 320 318 319 318 316 313 309 303 299 299 297 294 289 286
115 120 48 57 101 13 217 150 269 196 210 213 210 221 220 218 221 230 241 244 268 279 289 303 313 321 324 324 327 327 325 324 323 323 322 321 320 320 319 317 314 312 306 301 299 296 295 293 284
120 75 327 347 1 227 103 100 249 231 238 230 205 211 213 216 220 223 230 249 265 273 294 309 317 321 323 326 327 325 324 322 322 322 321 321 320 319 318 317 315 311 308 306 304 299 294 292 287
143 148 155 234 233 276 323 239 256 182 146 89 194 202 209 217 218 222 233 250 258 283 302 312 319 324 325 322 323 322 322 321 321 320 318 318 319 318 317 315 310 306 305 303 302 300 296 292 287
175 190 164 102 32 40 256 289 281 160 187 172 162 192 208 215 217 224 233 243 273 296 309 316 321 320 318 321 321 321 321 321 320 319 318 318 319 318 316 312 309 308 305 305 304 300 295 292 288
179 160 70 27 185 256 279 276 245 232 219 204 192 203 210 210 212 220 231 263 291 303 307 316 319 321 321 320 320 320 321 321 320 319 319 320 320 321 319 316 312 310 308 306 305 301 297 292 288
150 184 121 122 161 196 281 259 220 223 196 199 210 217 219 217 214 220 251 280 294 302 312 317 318 317 317 319 321 322 322 322 321 321 321 322 322 322 320 319 310 305 302 300 293 296 298 295 285
226 186 158 145 213 215 151 270 314 240 193 194 213 233 228 210 212 238 266 283 297 305 310 314 318 319 320 322 323 324 325 325 324 324 323 323 323 322 320 315 311 305 305 302 299 295 287 288 289
Height
1525 1524 1525 1524 1535 1542 1555 1552 1548 1546 1545 1546 1544 1542 1552 1555 1558 1568 1564 1563 1562 1559 1557 1556 1555 1553 1551 1550 1548 1547 1546 1545 1544 1543 1542 1541 1541 1540 1539 1539 1538 1538 1537 1535 1534 1533 1532 1530 1530
1525 1525 1524 1526 1546 1559 1561 1550 1550 1546 1546 1546 1547 1549 1551 1561 1560 1562 1563 1563 1562 1559 1558 1556 1554 1552 1551 1549 1548 1546 1545 1544 1543 1542 1541 1540 1539 1539 1538 1537 1536 1536 1535 1534 1533 1531 1531 1529 1529
1528 1528 1529 1534 1552 1559 1559 1549 1548 1546 1545 1545 1547 1550 1555 1562 1561 1561 1563 1563 1562 1560 1558 1556 1554 1552 1550 1548 1547 1545 1544 1542 1541 1540 1539 1538 1537 1536 1535 1534 1534 1533 1532 1532 1531 1530 1529 1528 1527
1528 1528 1531 1547 1553 1550 1549 1547 1545 1545 1545 1545 1547 1554 1559 1561 1561 1562 1563 1563 1561 1560 1558 1556 1554 1552 1551 1548 1546 1544 1542 1541 1539 1537 1537 1536 1535 1534 1534 1533 1531 1530 1529 1528 1528 1527 1527 1526 1525
1528 1529 1543 1551 1551 1548 1547 1546 1545 1546 1547 1547 1548 1557 1560 1562 1562 1563 1563 1563 1561 1560 1558 1556 1554 1552 1551 1549 1547 1545 1543 1540 1539 1537 1536 1535 1533 1532 1531 1530 1529 1528 1527 1526 1525 1524 1523 1523 1522
1528 1531 1553 1559 1553 1549 1548 1546 1546 1546 1547 1548 1550 1555 1561 1563 1564 1563 1563 1562 1561 1560 1559 1556 1555 1553 1551 1549 1547 1545 1543 1541 1539 1536 1534 1533 1532 1530 1529 1527 1527 1525 1524 1522 1522 1521 1521 1519 1518
1530 1538 1552 1556 1556 1551 1548 1547 1547 1548 1548 1549 1551 1557 1562 1564 1564 1563 1563 1563 1562 1560 1559 1557 1555 1554 1552 1549 1547 1545 1543 1542 1538 1536 1534 1532 1530 1528 1527 1525 1523 1522 1521 1519 1518 1517 1517 1517 1516
1531 1535 1547 1551 1555 1552 1547 1547 1548 1549 1551 1551 1552 1555 1561 1562 1562 1563 1564 1563 1562 1561 1559 1557 1556 1554 1552 1550 1548 1546 1544 1541 1539 1536 1534 1531 1529 1526 1524 1522 1520 1519 1517 1515 1515 1513 1512 1512 1511
1532 1545 1555 1550 1550 1549 1547 1548 1549 1550 1550 1551 1553 1554 1556 1560 1561 1563 1563 1563 1562 1560 1559 1558 1556 1554 1553 1550 1548 1546 1544 1542 1540 1536 1534 1532 1528 1526 1522 1519 1517 1514 1513 1511 1510 1509 1507 1506 1506
1533 1548 1547 1545 1544 1546 1546 1547 1548 1551 1552 1555 1555 1556 1558 1559 1560 1561 1562 1561 1561 1560 1558 1557 1556 1554 1553 1551 1549 1547 1544 1542 1539 1536 1534 1531 1528 1525 1522 1518 1515 1513 1510 1507 1505 1503 1502 1501 1500
1536 1545 1543 1545 1545 1545 1546 1548 1549 1550 1554 1554 1555 1557 1559 1559 1560 1560 1560 1560 1560 1559 1559 1557 1556 1555 1553 1551 1549 1547 1544 1541 1539 1536 1533 1530 1527 1523 1520 1517 1515 1511 1508 1505 1502 1500 1497 1494 1495
1541 1542 1543 1545 1546 1546 1547 1549 1551 1552 1554 1554 1555 1557 1557 1559 1560 1560 1559 1559 1559 1558 1558 1557 1556 1554 1553 1550 1548 1546 1543 1540 1538 1535 1532 1528 1525 1522 1518 1515 1512 1509 1506 1502 1499 1496 1494 1490 1488
1540 1543 1544 1546 1547 1547 1548 1550 1551 1553 1553 1553 1554 1555 1556 1557 1558 1558 1558 1558 1558 1558 1557 1556 1555 1553 1551 1550 1548 1545 1542 1540 1536 1533 1530 1526 1523 1520 1516 1513 1510 1506 1502 1499 1496 1493 1490 1487 1485
1541 1543 1545 1546 1547 1548 1549 1551 1550 1552 1552 1552 1552 1554 1555 1555 1556 1557 1557 1557 1557 1557 1556 1555 1554 1552 1551 1548 1546 1544 1541 1537 1534 1531 1528 1524 1521 1518 1515 1511 1507 1505 1501 1497 1494 1490 1487 1484 1481
1541 1546 1546 1546 1546 1547 1547 1551 1550 1550 1551 1551 1551 1553 1554 1554 1555 1556 1556 1556 1556 1556 1555 1554 1553 1551 1549 1547 1544 1541 1538 1535 1532 1528 1526 1523 1519 1515 1511 1508 1504 1501 1498 1494 1491 1487 1483 1481 1477
1543 1547 1552 1546 1545 1546 1547 1550 1547 1548 1550 1551 1551 1552 1552 1554 1554 1554 1555 1555 1555 1554 1554 1553 1552 1550 1547 1545 1542 1540 1537 1533 1530 1527 1523 1519 1515 1511 1507 1504 1501 1497 1494 1490 1487 1483 1479 1476 1473
1547 1551 1549 1547 1544 1545 1546 1546 1544 1546 1548 1549 1550 1550 1551 1552 1553 1553 1553 1554 1554 1553 1553 1551 1550 1548 1546 1543 1541 1538 1535 1531 1527 1523 1519 1515 1512 1507 1503 1500 1497 1492 1489 1486 1483 1480 1476 1472 1468
1550 1548 1544 1545 1544 1543 1545 1544 1543 1544 1545 1545 1547 1549 1549 1550 1550 1551 1551 1552 1552 1551 1550 1549 1548 1546 1543 1540 1538 1535 1531 1527 1523 1519 1515 1511 1507 1503 1498 1496 1492 1488 1485 1482 1479 1476 1472 1470 1465
1541 1544 1546 1544 1544 1544 1543 1540 1541 1541 1542 1543 1545 1546 1547 1548 1548 1549 1550 1550 1550 1549 1548 1547 1545 1542 1539 1535 1530 1527 1524 1521 1518 1515 1511 1506 1501 1497 1492 1489 1486 1484 1480 1477 1474 1471 1466 1465 1462
1541 1544 1547 1547 1543 1545 1542 1538 1536 1538 1538 1539 1540 1543 1544 1546 1547 1547 1548 1548 1548 1547 1546 1544 1542 1539 1535 1531 1527 1524 1520 1516 1512 1508 1504 1501 1496 1492 1487 1484 1481 1478 1475 1472 1469 1467 1464 1462 1460
1548 1547 1550 1551 1548 1544 1544 1541 1538 1537 1537 1538 1539 1540 1541 1543 1544 1545 1546 1546 1545 1543 1542 1540 1539 1536 1533 1529 1525 1521 1518 1513 1506 1502 1498 1493 1490 1488 1483 1479 1476 1473 1470 1467 1464 1462 1460 1457 1457
1546 1547 1549 1551 1555 1553 1544 1554 1535 1537 1536 1536 1536 1536 1537 1539 1541 1542 1543 1543 1541 1540 1539 1538 1537 1534 1530 1527 1522 1516 1510 1505 1501 1497 1492 1487 1485 1482 1478 1473 1470 1467 1465 1462 1459 1457 1456 1454 1452
1545 1546 1548 1550 1554 1556 1550 1558 1531 1536 1536 1532 1530 1532 1534 1536 1538 1540 1540 1540 1538 1537 1537 1536 1534 1531 1527 1523 1518 1513 1508 1503 1497 1492 1487 1483 1477 1475 1472 1467 1464 1461 1458 1456 1454 1452 1450 1449 1448
1544 1546 1551 1555 1560 1567 1545 1551 1532 1534 1523 1522 1524 1527 1530 1533 1535 1537 1538 1537 1536 1535 1535 1533 1531 1527 1523 1519 1514 1509 1504 1498 1493 1487 1482 1477 1472 1468 1465 1461 1458 1455 1452 1449 1447 1446 1445 1443 1442
1543 1550 1563 1562 1565 1548 1543 1555 1524 1517 1517 1517 1518 1521 1527 1531 1533 1535 1535 1535 1534 1534 1533 1530 1526 1523 1519 1515 1510 1505 1500 1495 1488 1483 1477 1472 1466 1462 1459 1456 1452 1449 1446 1443 1441 1439 1438 1437 1436
1543 1547 1565 1558 1569 1556 1549 1542 1517 1517 1517 1516 1517 1522 1526 1528 1530 1531 1531 1532 1532 1531 1529 1526 1523 1520 1516 1511 1506 1502 1497 1491 1485 1479 1474 1468 1462 1457 1453 1449 1446 1443 1440 1437 1435 1433 1431 1430 1429
1543 1548 1547 1556 1568 1576 1548 1530 1516 1517 1518 1517 1518 1520 1522 1524 1526 1528 1529 1529 1529 1527 1525 1522 1518 1515 1511 1506 1501 1495 1490 1485 1479 1474 1469 1464 1458 1452 1448 1444 1439 1436 1433 1431 1428 1427 1425 1424 1423
1540 1543 1554 1563 1564 1557 1546 1541 1520 1519 1518 1518 1518 1518 1520 1522 1524 1525 1526 1526 1525 1523 1521 1518 1514 1510 1505 1501 1496 1490 1484 1479 1473 1468 1463 1458 1453 1447 1442 1437 1433 1430 1427 1424 1422 1421 1419 1417 1417
1544 1544 1545 1551 1558 1561 1565 1531 1510 1509 1510 1512 1513 1515 1517 1518 1520 1522 1523 1523 1522 1520 1518 1514 1510 1506 1501 1495 1490 1484 1479 1473 1468 1462 1457 1452 1447 1442 1437 1432 1428 1424 1420 1418 1416 1415 1413 1411 1411
1532 1533 1537 1550 1546 1563 1569 1534 1506 1506 1506 1509 1510 1512 1513 1516 1518 1519 1520 1519 1518 1516 1513 1510 1505 1500 1495 1489 1484 1478 1473 1468 1462 1457 1451 1447 1441 1436 1431 1426 1422 1418 1414 1412 1409 1407 1406 1405 1403